Location: Newark
(12.4436°N, 0.6167°W)
Time: 23:50:59
(UTC+00:00)

deb Explorer IX - Pass Details

Date: 08 December 2019
Orbit: 548 x 1101 km, 38.8° (Epoch: 26 January)

Event Time Altitude Azimuth Distance (km) Brightness Sun altitude
Rises 15:10:01 0° 246° (WSW) 3,022 ? 30.6°
Reaches altitude 10° 15:12:20 10° 253° (WSW) 2,186 ? 30.1°
Maximum altitude 15:17:15 44° 325° (NW) 1,083 ? 29.1°
Drops below altitude 10° 15:23:00 10° 37° (NE) 2,557 ? 28.0°
Sets 15:25:54 0° 43° (NE) 3,593 ? 27.4°
